DW4847 Weather Reports


Display with metric or nautical units.
time (UTC)temp
F
wind
direction
speed
MPH
gust
MPH
rain 1hr
in
rain 24hr
in
rain mn
in
humidity
%
barometer
mb
20260903214042 74 286 0.0 1.0 0.00 0.12 0.12 88 1012.8
20260903213547 74 265 0.0 2.0 0.00 0.12 0.12 88 1012.8
20260903213055 74 265 0.0 2.0 0.00 0.12 0.12 87 1012.8
20260903212533 74 265 0.0 1.0 0.00 0.12 0.12 86 1012.8
20260903212035 74 265 0.0 2.0 0.00 0.12 0.12 85 1012.7
20260903211538 75 265 0.0 2.0 0.00 0.12 0.12 85 1012.9
20260903211040 75 305 0.0 2.0 0.00 0.12 0.12 86 1013.0
20260903210545 75 171 0.0 1.0 0.00 0.12 0.12 85 1012.9
20260903210029 75 155 0.0 6.0 0.00 0.12 0.12 84 1012.8
20260903205607 75 153 2.0 6.0 0.00 0.12 0.12 84 1012.8
20260903205048 75 316 0.0 1.0 0.00 0.12 0.12 86 1012.6
20260903204552 75 316 0.0 3.0 0.00 0.12 0.12 86 1012.7
20260903204038 75 329 1.0 3.0 0.00 0.12 0.12 86 1012.7
20260903203545 75 98 0.0 1.0 0.00 0.12 0.12 85 1012.7
20260903203052 75 244 0.0 1.0 0.00 0.12 0.12 84 1012.6
20260903202534 75 257 0.0 3.0 0.00 0.12 0.12 82 1012.7
20260903202046 75 300 1.0 3.0 0.00 0.12 0.12 84 1012.7
20260903201529 75 246 0.0 1.0 0.00 0.12 0.12 85 1012.7
20260903201029 75 256 0.0 3.0 0.00 0.12 0.12 85 1012.7
20260903200533 75 257 1.0 4.0 0.00 0.12 0.12 83 1012.8
20260903200034 75 24 1.0 4.0 0.00 0.12 0.12 83 1012.8
20260903195540 75 319 1.0 3.0 0.00 0.12 0.12 83 1012.7
20260903195042 75 292 0.0 2.0 0.00 0.12 0.12 83 1012.7
20260903194545 75 180 0.0 2.0 0.00 0.12 0.12 82 1012.8
20260903194046 75 144 0.0 2.0 0.00 0.12 0.12 83 1012.9
20260903193529 75 144 1.0 3.0 0.00 0.12 0.12 83 1013.0
20260903193031 75 206 0.0 2.0 0.00 0.12 0.12 84 1013.0
20260903192548 75 250 0.0 2.0 0.00 0.12 0.12 85 1013.0
20260903192053 75 289 0.0 2.0 0.00 0.12 0.12 84 1013.1
20260903191559 75 283 0.0 2.0 0.00 0.12 0.12 85 1013.2
20260903191041 74 280 1.0 2.0 0.00 0.12 0.12 85 1013.2
20260903190547 74 200 1.0 2.0 0.00 0.12 0.12 85 1013.1
20260903190049 74 242 1.0 2.0 0.00 0.12 0.12 83 1013.3
20260903185552 74 328 0.0 3.0 0.00 0.12 0.12 84 1013.3
20260903185033 74 296 1.0 3.0 0.00 0.12 0.12 84 1013.4
20260903184615 75 296 0.0 3.0 0.00 0.12 0.12 84 1013.5
20260903184050 75 301 1.0 3.0 0.00 0.12 0.12 83 1013.4
20260903183551 75 223 1.0 2.0 0.00 0.12 0.12 84 1013.4
20260903183038 75 168 0.0 3.0 0.00 0.12 0.12 85 1013.6
20260903182539 74 173 1.0 3.0 0.00 0.12 0.12 85 1013.5
20260903182048 74 296 1.0 3.0 0.00 0.12 0.12 84 1013.4
20260903181530 74 164 1.0 6.0 0.00 0.12 0.12 85 1013.4
20260903181108 74 323 2.0 6.0 0.00 0.12 0.12 85 1013.5
20260903180549 73 250 0.0 3.0 0.00 0.12 0.12 87 1013.5
20260903180050 74 318 1.0 3.0 0.00 0.12 0.12 86 1013.7
20260903175536 74 234 1.0 3.0 0.00 0.12 0.12 86 1013.7
20260903175102 74 338 1.0 2.0 0.00 0.12 0.12 86 1013.7
20260903174527 74 37 0.0 3.0 0.00 0.12 0.12 85 1013.7
20260903174030 73 310 1.0 3.0 0.00 0.12 0.12 86 1013.7
20260903173533 74 204 1.0 3.0 0.00 0.12 0.12 86 1013.8
20260903173030 73 290 1.0 2.0 0.00 0.12 0.12 87 1013.8
20260903172533 73 283 0.0 4.0 0.00 0.12 0.12 87 1013.8
20260903172040 73 312 1.0 2.0 0.00 0.12 0.12 87 1013.8
20260903171618 73 228 0.0 2.0 0.00 0.12 0.12 87 1013.9
20260903171040 73 153 0.0 2.0 0.00 0.12 0.12 87 1014.0
20260903170548 73 350 0.0 2.0 0.00 0.12 0.12 87 1013.9
20260903170052 73 271 0.0 2.0 0.00 0.12 0.12 87 1014.0
20260903165537 74 323 0.0 2.0 0.00 0.12 0.12 86 1013.9
20260903165044 74 187 1.0 5.0 0.00 0.12 0.12 85 1013.9
20260903164527 74 121 1.0 5.0 0.00 0.12 0.12 83 1013.7
20260903164033 74 242 1.0 4.0 0.00 0.12 0.12 84 1013.7
20260903163540 74 196 1.0 3.0 0.00 0.12 0.12 86 1013.7
20260903163042 74 223 0.0 5.0 0.00 0.12 0.12 85 1013.9
20260903162548 74 309 2.0 5.0 0.00 0.12 0.12 84 1013.9
20260903162029 74 325 2.0 4.0 0.00 0.12 0.12 84 1013.9
20260903161607 73 343 1.0 4.0 0.00 0.12 0.12 86 1014.1
20260903161035 73 229 1.0 5.0 0.00 0.12 0.12 85 1014.1
20260903160606 73 234 2.0 5.0 0.00 0.12 0.12 85 1014.2
20260903160047 73 248 1.0 4.0 0.00 0.12 0.12 84 1014.0
20260903155535 73 248 0.0 5.0 0.00 0.12 0.12 87 1014.0
20260903155034 73 227 1.0 5.0 0.00 0.12 0.12 85 1013.9
20260903154552 73 333 2.0 6.0 0.00 0.12 0.12 87 1014.0
20260903154058 72 350 1.0 6.0 0.00 0.12 0.12 88 1014.1
20260903153526 72 338 2.0 5.0 0.00 0.12 0.12 87 1014.1
20260903153026 72 5 2.0 5.0 0.00 0.12 0.12 88 1014.0
20260903152529 72 152 1.0 4.0 0.00 0.12 0.12 88 1014.1
20260903152048 71 236 1.0 3.0 0.00 0.12 0.12 90 1014.3
20260903151536 71 184 1.0 3.0 0.00 0.12 0.12 90 1014.1
20260903151039 70 219 0.0 2.0 0.00 0.12 0.12 91 1014.1
20260903150558 70 346 1.0 2.0 0.00 0.12 0.12 92 1014.2
20260903150041 70 347 0.0 3.0 0.00 0.12 0.12 92 1014.1
20260903145605 70 355 0.0 3.0 0.00 0.12 0.12 93 1014.1
20260903145118 70 355 1.0 3.0 0.00 0.12 0.12 94 1014.3
20260903144559 69 279 1.0 2.0 0.00 0.12 0.12 95 1014.2
20260903144027 69 312 0.0 3.0 0.00 0.12 0.12 94 1014.1
20260903143549 69 284 0.0 1.0 0.00 0.12 0.12 96 1014.2
20260903143030 68 286 0.0 1.0 0.00 0.12 0.12 95 1014.2
20260903142553 68 286 0.0 1.0 0.00 0.12 0.12 96 1014.1
20260903142031 68 291 0.0 1.0 0.00 0.12 0.12 96 1014.1
20260903141534 68 291 0.0 1.0 0.00 0.12 0.12 96 1014.2
20260903141050 67 294 0.0 1.0 0.00 0.12 0.12 96 1014.1
20260903140553 67 293 0.0 1.0 0.00 0.12 0.12 97 1014.1
20260903140100 67 306 0.0 2.0 0.00 0.12 0.12 97 1014.2
20260903135541 67 306 0.0 2.0 0.01 0.12 0.12 97 1014.3
20260903135047 67 338 0.0 2.0 0.01 0.12 0.12 97 1014.2
20260903134550 67 31 0.0 2.0 0.01 0.12 0.12 97 1014.3
20260903134054 67 101 0.0 2.0 0.01 0.12 0.12 97 1014.1
20260903133541 66 244 0.0 1.0 0.01 0.12 0.12 97 1014.3
20260903133026 66 244 0.0 1.0 0.01 0.12 0.12 97 1014.3
20260903132532 66 244 0.0 1.0 0.01 0.12 0.12 97 1014.3
20260903132035 66 244 0.0 1.0 0.01 0.12 0.12 97 1014.4
20260903131537 66 302 0.0 1.0 0.01 0.12 0.12 97 1014.4
20260903131115 66 305 0.0 1.0 0.01 0.12 0.12 97 1014.4
20260903130526 65 312 0.0 0.0 0.01 0.12 0.12 97 1014.4
20260903130027 65 316 0.0 0.0 0.00 0.12 0.11 97 1014.7
20260903125548 65 318 0.0 0.0 0.00 0.12 0.11 97 1014.6
20260903125050 65 318 0.0 0.0 0.00 0.12 0.11 97 1014.7
20260903124548 65 318 0.0 0.0 0.00 0.12 0.11 97 1014.7
20260903124031 65 318 0.0 0.0 0.00 0.12 0.11 97 1014.8
20260903123534 64 318 0.0 0.0 0.00 0.12 0.11 97 1014.9
20260903123036 64 318 0.0 0.0 0.00 0.12 0.11 97 1014.9
20260903122527 64 318 0.0 0.0 0.00 0.12 0.11 97 1015.0
20260903122030 64 316 0.0 0.0 0.00 0.12 0.11 97 1015.0
20260903121553 64 316 0.0 1.0 0.00 0.12 0.11 97 1014.9
20260903121035 64 317 0.0 1.0 0.00 0.12 0.11 97 1015.0
20260903120540 64 317 0.0 2.0 0.00 0.12 0.11 97 1015.1
20260903120112 64 317 1.0 2.0 0.00 0.12 0.11 97 1015.1
20260903115540 64 317 0.0 1.0 0.00 0.12 0.11 97 1015.0
20260903115044 64 317 0.0 1.0 0.00 0.12 0.11 97 1015.2
20260903114549 64 317 0.0 2.0 0.00 0.12 0.11 97 1015.2
20260903114031 64 317 0.0 2.0 0.00 0.12 0.11 97 1015.3
20260903113538 64 57 1.0 2.0 0.00 0.12 0.11 97 1015.2
20260903113036 64 57 0.0 2.0 0.00 0.12 0.11 97 1015.2
20260903112524 63 317 0.0 2.0 0.00 0.12 0.11 97 1015.3
20260903112030 63 317 1.0 2.0 0.00 0.12 0.11 97 1015.4
20260903111533 63 317 0.0 1.0 0.00 0.12 0.11 97 1015.3
20260903111036 63 317 0.0 2.0 0.00 0.12 0.11 97 1015.3
20260903110540 63 317 1.0 2.0 0.00 0.12 0.11 97 1015.3
20260903110056 63 317 0.0 2.0 0.00 0.12 0.11 97 1015.2
20260903105554 63 317 0.0 2.0 0.00 0.12 0.11 97 1015.2
20260903105036 63 238 0.0 1.0 0.00 0.12 0.11 97 1015.4
20260903104539 63 238 0.0 1.0 0.00 0.12 0.11 97 1015.3
20260903104042 63 238 0.0 1.0 0.00 0.12 0.11 97 1015.2
20260903103529 63 238 0.0 1.0 0.00 0.12 0.11 97 1015.1
20260903103031 63 238 0.0 1.0 0.00 0.12 0.11 97 1014.9
20260903102534 63 238 0.0 2.0 0.00 0.12 0.11 97 1014.9
20260903102036 62 238 1.0 2.0 0.00 0.12 0.11 97 1015.0
20260903101539 62 10 0.0 2.0 0.00 0.12 0.11 97 1014.9
20260903101042 62 10 0.0 2.0 0.00 0.12 0.11 97 1015.0
20260903100529 62 9 0.0 2.0 0.00 0.12 0.11 97 1015.1
20260903100029 61 9 0.0 2.0 0.00 0.12 0.11 97 1014.9
20260903095536 62 13 0.0 2.0 0.00 0.12 0.11 97 1014.8
20260903095116 61 258 0.0 2.0 0.00 0.12 0.11 97 1014.9
20260903094532 61 258 0.0 1.0 0.00 0.12 0.11 97 1014.8
20260903094055 61 258 0.0 1.0 0.00 0.12 0.11 97 1014.8
20260903093542 61 258 0.0 1.0 0.00 0.12 0.11 97 1014.9
20260903093046 61 355 0.0 1.0 0.00 0.12 0.11 97 1014.9
20260903092531 61 355 0.0 1.0 0.00 0.12 0.11 97 1015.0
20260903092051 61 355 0.0 0.0 0.00 0.12 0.11 96 1015.0
20260903091549 61 355 0.0 0.0 0.00 0.12 0.11 96 1015.1
20260903091052 61 355 0.0 0.0 0.00 0.12 0.11 96 1015.1
20260903090555 61 355 0.0 0.0 0.00 0.12 0.11 96 1015.0
20260903090036 61 355 0.0 0.0 0.00 0.12 0.11 96 1015.1
20260903085539 61 355 0.0 0.0 0.00 0.12 0.11 96 1015.1
20260903085042 61 355 0.0 0.0 0.00 0.12 0.11 96 1015.1
20260903084528 61 355 0.0 0.0 0.00 0.12 0.11 96 1015.2
20260903084034 61 355 0.0 0.0 0.00 0.12 0.11 96 1015.4
20260903083557 61 355 0.0 0.0 0.00 0.12 0.11 96 1015.4
20260903083040 61 355 0.0 0.0 0.00 0.12 0.11 96 1015.5
20260903082617 61 355 0.0 0.0 0.00 0.12 0.11 96 1015.5
20260903082039 61 355 0.0 0.0 0.00 0.12 0.11 96 1015.6
20260903081545 61 355 0.0 0.0 0.00 0.12 0.11 96 1015.6
20260903081027 61 355 0.0 0.0 0.00 0.12 0.11 96 1015.5
20260903080550 61 355 0.0 0.0 0.00 0.12 0.11 96 1015.5
20260903080033 61 355 0.0 0.0 0.00 0.12 0.11 97 1015.3
20260903075551 61 355 0.0 0.0 0.00 0.12 0.11 96 1015.3
20260903075051 61 355 0.0 0.0 0.00 0.12 0.11 96 1015.4
20260903074524 61 355 0.0 0.0 0.00 0.12 0.11 96 1015.4
20260903074042 61 355 0.0 0.0 0.00 0.12 0.11 96 1015.5
20260903073601 61 355 0.0 0.0 0.00 0.12 0.11 96 1015.6
20260903073042 60 355 0.0 1.0 0.00 0.12 0.11 96 1015.7
20260903072528 60 355 0.0 1.0 0.00 0.12 0.11 96 1015.5
20260903072054 61 355 0.0 1.0 0.00 0.12 0.11 96 1015.5
20260903071536 60 355 0.0 1.0 0.00 0.12 0.11 96 1015.6
20260903071025 60 355 0.0 0.0 0.00 0.12 0.11 96 1015.6
20260903070529 60 355 0.0 0.0 0.00 0.12 0.11 96 1015.6
20260903070026 60 355 0.0 0.0 0.00 0.12 0.11 96 1015.6
20260903065544 60 355 0.0 0.0 0.00 0.12 0.11 96 1015.7
20260903065046 60 355 0.0 1.0 0.01 0.12 0.11 96 1015.6
20260903064549 60 355 0.0 1.0 0.01 0.12 0.11 96 1015.5
20260903064032 60 355 0.0 1.0 0.01 0.12 0.11 96 1015.5
20260903063557 60 355 0.0 0.0 0.02 0.12 0.11 96 1015.4
20260903063031 60 355 0.0 0.0 0.04 0.12 0.11 96 1015.6
20260903062534 60 355 0.0 0.0 0.05 0.12 0.11 96 1015.6
20260903062037 60 355 0.0 0.0 0.05 0.12 0.11 96 1015.8
20260903061540 60 355 0.0 0.0 0.06 0.12 0.11 96 1015.8
20260903061058 60 355 0.0 0.0 0.06 0.12 0.11 96 1015.9
20260903060526 60 355 0.0 0.0 0.07 0.12 0.11 96 1016.2
20260903060106 60 355 0.0 1.0 0.08 0.12 0.11 96 1016.1
20260903055527 60 355 0.0 1.0 0.09 0.12 0.11 96 1016.3
20260903055033 60 355 0.0 1.0 0.08 0.11 0.10 96 1016.5
20260903054536 60 355 0.0 0.0 0.09 0.11 0.10 96 1016.6
20260903054103 60 355 0.0 0.0 0.10 0.11 0.10 96 1016.9
20260903053528 60 355 0.0 0.0 0.09 0.10 0.09 96 1017.1
20260903053030 60 355 0.0 0.0 0.07 0.08 0.07 96 1017.1
20260903052534 60 355 0.0 0.0 0.06 0.07 0.06 96 1017.1
20260903052032 60 355 0.0 0.0 0.06 0.07 0.06 96 1017.1
20260903051550 60 355 0.0 0.0 0.05 0.06 0.05 95 1017.4
20260903051051 60 355 0.0 0.0 0.05 0.06 0.05 95 1017.5
20260903050556 60 355 0.0 0.0 0.04 0.05 0.04 95 1017.7
20260903050058 60 355 0.0 1.0 0.03 0.04 0.03 95 1017.8
20260903045540 60 355 0.0 1.0 0.02 0.03 0.02 95 1017.9
20260903045039 60 9 0.0 0.0 0.02 0.03 0.02 95 1017.9
20260903044525 60 9 0.0 0.0 0.01 0.02 0.01 95 1018.1
20260903044027 60 9 0.0 1.0 0.00 0.01 0.00 95 1018.2
20260903043532 60 9 0.0 1.0 0.00 0.01 0.00 94 1018.1
20260903043033 60 9 0.0 1.0 0.00 0.01 0.00 94 1018.1
20260903042536 60 9 0.0 1.0 0.00 0.01 0.00 94 1018.1
20260903042058 60 9 0.0 1.0 0.00 0.01 0.00 93 1018.2
20260903041534 60 9 0.0 2.0 0.00 0.01 0.00 93 1018.1
20260903041037 60 9 0.0 2.0 0.00 0.01 0.00 93 1018.1
20260903040529 61 325 0.0 0.0 0.00 0.01 0.00 92 1018.2
20260903040029 61 325 0.0 1.0 0.00 0.01 0.01 92 1018.1
20260903035533 61 325 0.0 1.0 0.00 0.01 0.01 92 1018.1
20260903035039 61 281 0.0 0.0 0.00 0.01 0.01 92 1018.0
20260903034544 61 281 0.0 0.0 0.00 0.01 0.01 92 1018.1
20260903034042 61 281 0.0 0.0 0.00 0.01 0.01 92 1018.2
20260903033526 61 281 0.0 0.0 0.00 0.01 0.01 92 1018.3
20260903033034 61 281 0.0 0.0 0.00 0.01 0.01 92 1018.4
20260903032540 61 281 0.0 0.0 0.00 0.01 0.01 92 1018.2
20260903032058 61 281 0.0 0.0 0.00 0.01 0.01 92 1018.0
20260903031525 61 281 0.0 0.0 0.00 0.01 0.01 92 1017.9
20260903031031 61 281 0.0 0.0 0.00 0.01 0.01 92 1018.0
20260903030547 61 281 0.0 0.0 0.00 0.01 0.01 92 1017.9
20260903030052 61 281 0.0 0.0 0.00 0.01 0.01 92 1018.1
20260903025554 61 281 0.0 1.0 0.00 0.01 0.01 92 1018.1
20260903025039 61 261 0.0 0.0 0.00 0.01 0.01 93 1018.1
20260903024602 61 261 0.0 2.0 0.00 0.01 0.01 92 1018.2
20260903024119 61 261 0.0 2.0 0.00 0.01 0.01 92 1018.5
20260903023559 61 261 0.0 0.0 0.00 0.01 0.01 92 1018.7
20260903023043 61 260 0.0 0.0 0.00 0.01 0.01 92 1018.9
20260903022546 61 261 0.0 1.0 0.00 0.01 0.01 92 1019.1
20260903022029 61 261 0.0 1.0 0.00 0.01 0.01 92 1019.3
20260903021532 61 260 0.0 1.0 0.00 0.01 0.01 92 1019.3
20260903021035 61 260 0.0 1.0 0.00 0.01 0.01 91 1019.3
20260903020539 61 260 0.0 1.0 0.00 0.01 0.01 91 1019.3
20260903020024 61 261 0.0 0.0 0.00 0.01 0.01 91 1019.3
20260903015617 61 261 0.0 1.0 0.00 0.01 0.01 91 1019.6
20260903015026 61 261 0.0 2.0 0.00 0.01 0.01 91 1019.6
20260903014532 61 202 0.0 1.0 0.00 0.01 0.01 91 1019.7
20260903014053 61 202 0.0 1.0 0.00 0.01 0.01 91 1019.9
20260903013527 61 199 0.0 0.0 0.00 0.01 0.01 90 1019.7
20260903013032 61 199 0.0 0.0 0.00 0.01 0.01 90 1019.6
20260903012529 61 199 0.0 0.0 0.00 0.01 0.01 90 1019.7
20260903012053 61 199 0.0 1.0 0.00 0.01 0.01 90 1019.6
20260903011556 61 199 0.0 1.0 0.00 0.01 0.01 89 1019.6
20260903011038 61 199 0.0 1.0 0.00 0.01 0.01 90 1019.5
20260903010543 61 199 0.0 1.0 0.00 0.01 0.01 91 1019.4
20260903010044 61 257 0.0 3.0 0.00 0.01 0.01 91 1019.4
20260903005546 61 257 0.0 3.0 0.00 0.01 0.01 91 1019.3
20260903005027 61 310 0.0 3.0 0.00 0.01 0.01 91 1018.9
20260903004531 61 310 0.0 3.0 0.00 0.01 0.01 91 1018.8
20260903004049 61 324 0.0 1.0 0.00 0.01 0.01 92 1018.6
20260903003553 61 324 0.0 1.0 0.00 0.01 0.01 92 1018.6
20260903003026 61 324 0.0 1.0 0.00 0.01 0.01 91 1018.8
20260903002546 62 326 0.0 1.0 0.00 0.01 0.01 91 1018.7
20260903002052 62 326 0.0 1.0 0.00 0.01 0.01 91 1018.7
20260903001554 62 326 0.0 2.0 0.00 0.01 0.01 90 1018.9
20260903001036 62 290 0.0 2.0 0.00 0.01 0.01 91 1019.0
20260903000540 62 290 0.0 2.0 0.00 0.01 0.01 90 1019.0
20260903000045 62 293 0.0 1.0 0.00 0.02 0.01 90 1019.0
20260902235553 62 293 0.0 1.0 0.00 0.02 0.01 89 1019.0
20260902235038 62 293 0.0 1.0 0.00 0.02 0.01 89 1019.1
20260902234542 62 294 0.0 0.0 0.00 0.02 0.01 90 1019.0
20260902234041 62 294 0.0 2.0 0.00 0.02 0.01 90 1019.2
20260902233545 63 294 0.0 2.0 0.00 0.02 0.01 89 1019.2
20260902233026 63 312 0.0 1.0 0.00 0.02 0.01 88 1019.2
20260902232529 63 323 0.0 0.0 0.00 0.02 0.01 89 1019.1
20260902232114 63 323 0.0 0.0 0.00 0.02 0.01 88 1019.2
20260902231534 63 323 0.0 0.0 0.00 0.02 0.01 89 1019.2
20260902231040 63 323 0.0 2.0 0.00 0.02 0.01 90 1019.4
20260902230540 63 336 0.0 2.0 0.00 0.02 0.01 92 1019.6
20260902230045 63 335 0.0 1.0 0.00 0.02 0.01 92 1019.8
20260902225527 63 333 0.0 1.0 0.00 0.02 0.01 91 1019.9
20260902225030 63 333 0.0 1.0 0.00 0.02 0.01 92 1020.1
20260902224557 64 338 0.0 1.0 0.00 0.02 0.01 92 1020.2
20260902224042 63 338 0.0 1.0 0.00 0.02 0.01 92 1020.2
20260902223529 64 267 0.0 0.0 0.00 0.02 0.01 92 1020.3
20260902223105 64 267 0.0 0.0 0.00 0.02 0.01 92 1020.4
20260902222550 64 267 0.0 0.0 0.00 0.02 0.01 92 1020.3
20260902222052 64 267 0.0 0.0 0.00 0.02 0.01 91 1020.4
20260902221535 64 267 0.0 0.0 0.00 0.02 0.01 91 1020.4
20260902221038 64 267 0.0 0.0 0.00 0.02 0.01 91 1020.4
20260902220545 64 267 0.0 0.0 0.00 0.02 0.01 90 1020.6
20260902220046 64 267 0.0 0.0 0.00 0.03 0.01 90 1020.4
20260902215531 64 267 0.0 0.0 0.00 0.03 0.01 90 1020.4
20260902215034 64 267 0.0 0.0 0.00 0.03 0.01 90 1020.3
20260902214612 64 267 0.0 0.0 0.00 0.03 0.01 90 1020.2